TimeCDT,TemperatureF,Dew PointF,Humidity,Sea Level PressureIn,VisibilityMPH,Wind Direction,Wind SpeedMPH,Gust SpeedMPH,PrecipitationIn,Events,Conditions,WindDirDegrees,DateUTC
12:53 AM,82.0,75.9,82,29.90,10.0,South,4.6,-,N/A,,Clear,170,2013-08-07 05:53:00
1:53 AM,80.1,75.9,87,29.89,10.0,South,4.6,-,N/A,,Clear,180,2013-08-07 06:53:00
2:53 AM,80.1,73.9,81,29.88,10.0,SSE,3.5,-,N/A,,Clear,160,2013-08-07 07:53:00
3:53 AM,79.0,73.0,82,29.87,10.0,South,5.8,-,N/A,,Clear,190,2013-08-07 08:53:00
4:53 AM,80.1,72.0,76,29.86,10.0,SW,8.1,-,N/A,,Clear,220,2013-08-07 09:53:00
5:53 AM,80.1,73.0,79,29.88,10.0,SW,5.8,-,N/A,,Clear,220,2013-08-07 10:53:00
6:53 AM,79.0,73.0,82,29.90,10.0,SW,5.8,-,N/A,,Clear,230,2013-08-07 11:53:00
7:53 AM,81.0,73.9,79,29.91,10.0,SW,5.8,-,N/A,,Clear,230,2013-08-07 12:53:00
8:53 AM,84.9,75.0,72,29.94,10.0,West,5.8,-,N/A,,Clear,280,2013-08-07 13:53:00
9:53 AM,88.0,73.0,61,29.94,10.0,WSW,6.9,-,N/A,,Clear,250,2013-08-07 14:53:00
10:53 AM,91.0,72.0,53,29.93,10.0,WNW,5.8,-,N/A,,Clear,290,2013-08-07 15:53:00
11:53 AM,93.0,71.1,49,29.92,10.0,SSW,3.5,-,N/A,,Clear,200,2013-08-07 16:53:00
12:53 PM,95.0,71.1,46,29.91,10.0,Calm,Calm,-,N/A,,Clear,0,2013-08-07 17:53:00
1:53 PM,97.0,70.0,41,29.89,10.0,SSW,3.5,-,N/A,,Partly Cloudy,210,2013-08-07 18:53:00
2:53 PM,99.0,69.1,38,29.88,10.0,Variable,3.5,-,N/A,,Clear,0,2013-08-07 19:53:00
3:53 PM,97.0,68.0,39,29.86,10.0,SSE,4.6,-,N/A,,Mostly Cloudy,160,2013-08-07 20:53:00
4:53 PM,97.0,69.1,40,29.85,10.0,ESE,5.8,-,N/A,,Overcast,120,2013-08-07 21:53:00
5:53 PM,97.0,70.0,41,29.83,10.0,SE,5.8,-,N/A,,Partly Cloudy,140,2013-08-07 22:53:00
6:53 PM,93.9,71.1,47,29.83,10.0,SSE,5.8,-,N/A,,Scattered Clouds,160,2013-08-07 23:53:00
7:53 PM,91.9,72.0,52,29.84,10.0,Calm,Calm,-,N/A,,Clear,0,2013-08-08 00:53:00
8:53 PM,88.0,70.0,55,29.86,10.0,Calm,Calm,-,N/A,,Clear,0,2013-08-08 01:53:00
9:53 PM,84.0,72.0,67,29.87,10.0,Calm,Calm,-,N/A,,Clear,0,2013-08-08 02:53:00
10:53 PM,84.0,72.0,67,29.89,10.0,SSE,3.5,-,N/A,,Clear,160,2013-08-08 03:53:00
11:53 PM,84.0,72.0,67,29.89,10.0,Calm,Calm,-,N/A,,Clear,0,2013-08-08 04:53:00